Content
SEND FEEDBACK

Daily
Averages
Monthly
Summary
United States of America

YIGO, GUAM


Home > North America > United States > Guam
Elevation: 530 feet     Latitude: 13 32N     Longitude: 144 53E

WEATHER
 
SELECT A DAY
Number of Records: 208,919;   Date Range: 1/1/95 - 7/23/14
 
SHARE

PRINT THIS DATA

[ ← Previous Day ]
WEATHER ALMANAC - AUGUST 22, 2013
[ Next Day → ]
[ °C ]   °F
Weather ElementAverageHighLow
Temperature82.2 °F87.1 °F (4:54 pm)78.8 °F (6:23 am)
Dewpoint76.8 °F80.6 °F (10:43 am)73.9 °F (2:54 pm)
Humidity84.1 %94 % (1:54 am)69 % (4:54 pm)
Barometer29.79 in29.86 in (10:17 pm)29.74 in (2:54 am)
Wind Speed6.6 mph12.7 mph (1:54 pm)
Wind Gust21.9 mph (2:54 pm)
Weather ElementAverage
Visibility9.9 mi
Wind DirectionENE (82.9 °)

Weather ElementTotal
Precipitation0.05 in
Cooling Degree Days18 (Base 65)
Growing Degree Days33 (Base 50)
Averaged from 28 records on August 22, 2013
WEATHER CONDITIONS BREAKOUT
WIND DIRECTION BREAKOUT
WEATHER BY HOUR - AUGUST 22, 2013
[ °C ]   °F
Local TimeTemperatureDewpointHumidityBarometerVisibilityWind DirectionWind SpeedGust SpeedPrecipitationEventsConditions
1:54 AM79.0 °F77.0 °F94 %29.76 in10.0 miEast (100°)4.6 mphScattered Clouds
2:54 AM79.0 °F77.0 °F94 %29.74 in10.0 miCalmScattered Clouds
3:54 AM79.0 °F77.0 °F94 %29.75 in10.0 miCalmPartly Cloudy
4:54 AM79.0 °F77.0 °F94 %29.75 in10.0 miCalmScattered Clouds
5:54 AM80.1 °F75.9 °F87 %29.76 in10.0 miNE (50°)9.2 mphScattered Clouds
6:23 AM78.8 °F75.2 °F89 %29.79 in9.0 miEast (80°)5.8 mph0.00 inRainLight Rain
6:37 AM78.8 °F77.0 °F94 %29.79 in10.0 miEast (80°)5.8 mph0.01 inScattered Clouds
6:54 AM79.0 °F77.0 °F94 %29.78 in8.0 miSSE (160°)3.5 mph0.01 inRainLight Rain
7:54 AM81.0 °F77.0 °F88 %29.79 in10.0 miENE (60°)4.6 mph0.00 inScattered Clouds
8:54 AM82.0 °F78.1 °F88 %29.80 in10.0 miEast (90°)5.8 mphPartly Cloudy
9:54 AM84.9 °F78.1 °F80 %29.80 in10.0 miVariable5.8 mphMostly Cloudy
10:43 AM86.0 °F80.6 °F84 %29.82 in10.0 miEast (100°)10.4 mph17.3 mphMostly Cloudy
10:54 AM85.6 °F80.2 °F84 %29.81 in10.0 miEast (100°)11.5 mph18.4 mphMostly Cloudy
11:54 AM86.0 °F75.9 °F72 %29.79 in10.0 miESE (120°)10.4 mphScattered Clouds
12:54 PM86.0 °F77.0 °F74 %29.79 in10.0 miEast (100°)9.2 mphScattered Clouds
1:54 PM86.0 °F75.9 °F72 %29.77 in10.0 miEast (90°)12.7 mph20.7 mphScattered Clouds
2:54 PM82.9 °F73.9 °F74 %29.76 in10.0 miSE (130°)9.2 mph21.9 mphMostly Cloudy
3:18 PM84.2 °F75.2 °F74 %29.79 in10.0 miESE (110°)4.6 mph0.00 inMostly Cloudy
3:54 PM86.0 °F75.9 °F72 %29.76 in10.0 miEast (100°)9.2 mph0.00 inScattered Clouds
4:54 PM87.1 °F75.9 °F69 %29.77 in10.0 miEast (90°)9.2 mphPartly Cloudy
5:54 PM82.9 °F77.0 °F82 %29.78 in10.0 miEast (90°)9.2 mph0.03 inClear
6:54 PM82.0 °F77.0 °F85 %29.78 in10.0 miEast (80°)9.2 mphPartly Cloudy
7:54 PM82.0 °F77.0 °F85 %29.80 in10.0 miEast (80°)5.8 mphClear
8:54 PM81.0 °F77.0 °F88 %29.82 in10.0 miEast (80°)4.6 mphClear
9:54 PM81.0 °F75.9 °F85 %29.83 in10.0 miSE (140°)4.6 mphMostly Cloudy
10:17 PM80.6 °F77.0 °F89 %29.86 in10.0 miEast (100°)6.9 mphScattered Clouds
10:54 PM81.0 °F75.9 °F85 %29.83 in10.0 miEast (100°)8.1 mphPartly Cloudy
11:54 PM82.0 °F77.0 °F85 %29.82 in10.0 miEast (90°)5.8 mphScattered Clouds
Hourly data recorded from PGUM, located miles away from Yigo, Guam







STORIES FROM OUR PARTNERS